"Pseudo-MPEC" for JJDS467

Created 2026 Apr 15 18:35:09 UT using Find_Orb

Click here for an explanation of pseudo-MPECs

 
 Astrometry: 
     JJDS467*KB2026 03 29.07316112 28 05.55 -03 07 00.9    ~3TFZ 20.5 VZNEOCPX09
     JJDS467 KB2026 03 29.20160912 28 01.63 -03 06 41.5    ~3TFZ 21.0 VZNEOCPX09
     JJDS467 KB2026 03 29.32857612 27 57.69 -03 06 23.0    ~3TFZ 21.0 VZNEOCPX09

Station data:
(X09) Deep Random Survey, Rio Hurtado  (S30.526310 W70.853300)  Chile.
   Observers A. Schnabel, D. Ruhela. Measurer S. Deen. 0.43-m reflector +
   CMOS.

Orbital elements:  JJDS467
   Perihelion 2025 Jan 31.950354 +/- 853 TT = 22:48:30.6 (JD 2460707.450354)
Epoch 2026 Mar 29.0 TT = JDT 2461128.5   Ju: 0.2169   Sa: 0.1744   Ur: 0.9092
M   4.950651093 +/- 57              (J2000 ecliptic)             AutoNEOCP
n   0.011757879 +/- 0.048           Peri.  105.470750 +/- 100
a  19.15358354 +/- 52.1             Node     7.053581 +/- 43
e   0.83677566 +/- 0.221            Incl.    4.904739 +/- 54
P  83.82529                H 14.56  G  0.15   U 10.7  SR
q 3.126330945 +/- 1.99    Q 35.18083613 +/- 70.5
From 3 observations 2026 Mar. 29 (6.1 hr); mean residual 0".21
Residuals in arcseconds: 
260329 X09  .17-  .12-    260329 X09  .34+  .25+    260329 X09  .17-  .12-    

Ephemerides (geocentric):
Date (UTC) HH   RA             Dec           delta  r     elong  mag " sig PA
---- --------  ------------   ------------  ------ ------ -----  --- --------
2026 04 15 19  12 19 49.781   -02 26 22.38  3.8808 4.8361 160.1 21.3  18d  85
2026 04 15 20  12 19 48.745   -02 26 17.37  3.8812 4.8363 160.0 21.3  18d  82
2026 04 15 21  12 19 47.710   -02 26 12.36  3.8817 4.8366 160.0 21.3  19d  80
2026 04 15 22  12 19 46.676   -02 26 07.36  3.8821 4.8368 159.9 21.3  21d  78
2026 04 15 23  12 19 45.643   -02 26 02.36  3.8826 4.8371 159.9 21.3  22d  79
2026 04 16 00  12 19 44.611   -02 25 57.37  3.8830 4.8373 159.8 21.3  23d  80
2026 04 16 01  12 19 43.580   -02 25 52.38  3.8835 4.8376 159.8 21.3  23d  81
2026 04 16 02  12 19 42.549   -02 25 47.40  3.8839 4.8378 159.7 21.3  24d  82
2026 04 16 03  12 19 41.519   -02 25 42.42  3.8844 4.8380 159.7 21.3  24d  82
2026 04 16 04  12 19 40.490   -02 25 37.44  3.8848 4.8383 159.7 21.3  24d  83
2026 04 16 05  12 19 39.462   -02 25 32.47  3.8853 4.8385 159.6 21.3  24d  84
2026 04 16 06  12 19 38.435   -02 25 27.51  3.8857 4.8388 159.6 21.3  24d  84
2026 04 16 07  12 19 37.408   -02 25 22.55  3.8862 4.8390 159.5 21.3  24d  84
2026 04 16 08  12 19 36.382   -02 25 17.59  3.8867 4.8393 159.5 21.3  24d  85
2026 04 16 09  12 19 35.357   -02 25 12.64  3.8871 4.8395 159.4 21.3  24d  85
2026 04 16 10  12 19 34.333   -02 25 07.70  3.8876 4.8398 159.4 21.3  24d  85
2026 04 16 11  12 19 33.310   -02 25 02.76  3.8880 4.8400 159.3 21.3  24d  86
2026 04 16 12  12 19 32.288   -02 24 57.82  3.8885 4.8402 159.3 21.3  25d  86
2026 04 16 13  12 19 31.266   -02 24 52.89  3.8890 4.8405 159.2 21.3  25d  86
2026 04 16 14  12 19 30.245   -02 24 47.96  3.8894 4.8407 159.2 21.3  25d  86
2026 04 16 15  12 19 29.225   -02 24 43.04  3.8899 4.8410 159.2 21.3  25d  86
2026 04 16 16  12 19 28.206   -02 24 38.13  3.8903 4.8412 159.1 21.3  25d  86
2026 04 16 17  12 19 27.188   -02 24 33.21  3.8908 4.8415 159.1 21.3  25d  86
2026 04 16 18  12 19 26.171   -02 24 28.31  3.8913 4.8417 159.0 21.3  25d  86
2026 04 16 19  12 19 25.154   -02 24 23.40  3.8917 4.8420 159.0 21.3  25d  87
2026 04 16 20  12 19 24.138   -02 24 18.51  3.8922 4.8422 158.9 21.3  25d  87
2026 04 16 21  12 19 23.123   -02 24 13.61  3.8926 4.8424 158.9 21.3  25d  87
2026 04 16 22  12 19 22.109   -02 24 08.72  3.8931 4.8427 158.8 21.3  25d  87
2026 04 16 23  12 19 21.096   -02 24 03.84  3.8936 4.8429 158.8 21.3  25d  87
2026 04 17 00  12 19 20.083   -02 23 58.96  3.8940 4.8432 158.8 21.3  25d  87
2026 04 17 01  12 19 19.072   -02 23 54.09  3.8945 4.8434 158.7 21.3  25d  87
2026 04 17 02  12 19 18.061   -02 23 49.22  3.8950 4.8437 158.7 21.3  25d  87
2026 04 17 03  12 19 17.051   -02 23 44.36  3.8954 4.8439 158.6 21.3  25d  87
2026 04 17 04  12 19 16.042   -02 23 39.50  3.8959 4.8441 158.6 21.3  25d  87
2026 04 17 05  12 19 15.034   -02 23 34.65  3.8964 4.8444 158.5 21.3  25d  87
2026 04 17 06  12 19 14.027   -02 23 29.80  3.8968 4.8446 158.5 21.3  25d  87
2026 04 17 07  12 19 13.020   -02 23 24.95  3.8973 4.8449 158.4 21.3  25d  87
2026 04 17 08  12 19 12.015   -02 23 20.11  3.8978 4.8451 158.4 21.3  25d  87
2026 04 17 09  12 19 11.010   -02 23 15.28  3.8982 4.8454 158.3 21.3  25d  87
2026 04 17 10  12 19 10.006   -02 23 10.45  3.8987 4.8456 158.3 21.3  25d  87
2026 04 17 11  12 19 09.003   -02 23 05.63  3.8992 4.8459 158.3 21.3  25d  87
2026 04 17 12  12 19 08.001   -02 23 00.81  3.8996 4.8461 158.2 21.3  25d  87
2026 04 17 13  12 19 06.999   -02 22 55.99  3.9001 4.8463 158.2 21.3  25d  87
2026 04 17 14  12 19 05.999   -02 22 51.18  3.9006 4.8466 158.1 21.3  25d  87
2026 04 17 15  12 19 04.999   -02 22 46.38  3.9011 4.8468 158.1 21.3  25d  87
2026 04 17 16  12 19 04.001   -02 22 41.58  3.9015 4.8471 158.0 21.3  25d  87
2026 04 17 17  12 19 03.003   -02 22 36.78  3.9020 4.8473 158.0 21.3  25d  87
2026 04 17 18  12 19 02.006   -02 22 32.00  3.9025 4.8476 157.9 21.3  25d  87